Weather in Dubno

Ukraine / Rovno District     50°23′55″N   25°45′34″E
temp.,
°C
wind,
m/s
gust,
m/s
humid.,
%
clouds,
%
prec.,
mm/h
press.,
hPa
HPBL,
m
8 may, sat
sat800:00+7w41195100 0.0 1007285
03:00+7wnw5992100 0.7 1010922
06:00+6wnw71094100 2.1 1011827
09:00+3wnw71297100 3.9 1014755
12:00+5nw7128656 0.3 10161112
15:00+8wnw9116754 0.9 10171518
18:00+9nw710615 0.4 10171727
21:00+5wnw36815 0.4 102081
9 may, sun
sun900:00+3w33885 0.0 102139
03:00+2w35920 0.0 102389
06:00+1w34930 0.0 102473
09:00+7w34715 0.0 1025357
12:00+12w235175 0.0 10241373
15:00+14wsw344560 0.0 10242061
18:00+15ssw244617 0.0 10231817
21:00+10se33665 0.0 102422
10 may, mon
mon1000:00+8sse347343 0.0 102550
03:00+7sse48735 0.0 1025124
06:00+6sse411735 0.0 1025190
09:00+12sse6126259 0.0 1025490
12:00+16sse810525 0.0 10241111
15:00+18sse89495 0.0 10231382
18:00+17se69598 0.0 10221093
21:00+12se4127560 0.0 1023264
11 may, tue
tue1100:00+10se6157428 0.0 1023330
03:00+9se6157453 0.0 1023338
06:00+8se514765 0.0 1023329
09:00+12se712665 0.0 1023490
12:00+17se79527 0.0 1021982
15:00+18se79430 0.0 10201149
18:00+18ese68550 0.0 10191083
21:00+12ese411750 0.0 1018192
12 may, wed
wed1200:00+10ese413840 0.0 1018261
03:00+9ese411932 0.0 1017218
06:00+9ese5119714 0.0 1016308
09:00+12ese697521 0.0 1015599
12:00+15ese68555 0.0 10141255
15:00+12ene7972100 0.0 1013531
18:00+11e71179100 0.2 1012650
21:00+9e388915 0.3 1011190